FW6209 Weather Reports


Display with metric or nautical units.
time (UTC)temp
F
wind
direction
speed
MPH
gust
MPH
rain 1hr
in
rain 24hr
in
rain mn
in
humidity
%
barometer
mb
20260505230624 62 200 4.0 17.0 0.00 0.06 0.06 60 1013.0
20260505230117 62 245 7.0 18.0 0.00 0.06 0.06 61 1012.9
20260505225612 62 246 5.0 18.0 0.00 0.06 0.06 59 1013.0
20260505225107 62 228 5.0 18.0 0.00 0.06 0.06 56 1013.0
20260505224559 63 132 6.0 18.0 0.00 0.06 0.06 55 1013.1
20260505224317 64 243 4.0 16.0 0.00 0.06 0.06 53 1013.2
20260505223547 64 197 4.0 16.0 0.00 0.06 0.06 53 1013.2
20260505223534 63 224 5.0 16.0 0.00 0.06 0.06 53 1013.3
20260505222536 63 253 4.0 16.0 0.00 0.06 0.06 55 1013.2
20260505222029 62 174 4.0 15.0 0.00 0.06 0.06 55 1013.3
20260505221524 61 248 6.0 14.0 0.00 0.06 0.06 55 1013.2
20260505221018 61 220 7.0 14.0 0.00 0.06 0.06 56 1013.3
20260505220512 61 231 5.0 14.0 0.00 0.06 0.06 56 1013.1
20260505220226 61 223 4.0 13.0 0.00 0.06 0.06 57 1013.3
20260505215500 61 202 4.0 15.0 0.00 0.06 0.06 56 1013.2
20260505214954 61 241 3.0 15.0 0.00 0.06 0.06 55 1013.3
20260505214937 62 212 3.0 16.0 0.00 0.06 0.06 55 1013.4
20260505213941 63 257 4.0 16.0 0.00 0.06 0.06 54 1013.6
20260505213656 63 219 5.0 14.0 0.00 0.06 0.06 58 1013.7
20260505212929 62 185 5.0 12.0 0.00 0.06 0.06 58 1013.8
20260505212423 63 232 5.0 12.0 0.00 0.06 0.06 57 1013.9
20260505211917 63 233 6.0 13.0 0.00 0.06 0.06 59 1013.9
20260505211411 62 209 6.0 13.0 0.00 0.06 0.06 62 1013.9
20260505210906 63 209 4.0 17.0 0.00 0.06 0.06 57 1013.9
20260505210401 63 253 3.0 17.0 0.00 0.06 0.06 60 1013.9
20260505205855 62 243 6.0 17.0 0.00 0.06 0.06 62 1014.0
20260505205347 62 192 7.0 19.0 0.00 0.06 0.06 59 1014.0
20260505204849 62 244 5.0 19.0 0.00 0.06 0.06 56 1013.9
20260505204343 62 246 6.0 19.0 0.00 0.06 0.06 59 1014.0
20260505203843 62 230 5.0 19.0 0.00 0.06 0.06 56 1014.0
20260505203344 62 238 4.0 13.0 0.00 0.06 0.06 60 1014.0
20260505202841 61 281 5.0 12.0 0.00 0.06 0.06 58 1014.0
20260505202343 61 258 5.0 13.0 0.00 0.06 0.06 55 1014.0
20260505201842 60 247 5.0 13.0 0.00 0.06 0.06 59 1014.1
20260505201343 60 232 5.0 13.0 0.00 0.06 0.06 63 1014.0
20260505201106 59 226 5.0 13.0 0.00 0.06 0.06 62 1014.2
20260505200341 59 238 4.0 12.0 0.00 0.06 0.06 61 1014.2
20260505200110 59 248 4.0 14.0 0.00 0.06 0.06 61 1014.3
20260505195343 59 248 5.0 14.0 0.00 0.06 0.06 63 1014.3
20260505195101 58 259 6.0 14.0 0.00 0.06 0.06 65 1014.3
20260505194342 59 219 6.0 14.0 0.00 0.06 0.06 65 1014.3
20260505193843 59 240 5.0 12.0 0.00 0.06 0.06 65 1014.3
20260505193341 59 217 5.0 12.0 0.00 0.06 0.06 64 1014.4
20260505192845 59 259 3.0 12.0 0.00 0.06 0.06 63 1014.3
20260505192340 59 259 3.0 11.0 0.00 0.06 0.06 63 1014.3
20260505191835 59 180 3.0 12.0 0.00 0.06 0.06 65 1014.4
20260505191325 59 231 3.0 12.0 0.00 0.06 0.06 64 1014.4
20260505191042 60 285 5.0 12.0 0.00 0.06 0.06 64 1014.4
20260505190314 59 257 5.0 12.0 0.00 0.06 0.06 67 1014.5
20260505185808 60 219 3.0 11.0 0.00 0.06 0.06 63 1014.5
20260505185305 60 235 3.0 11.0 0.00 0.06 0.06 64 1014.5
20260505184755 60 174 3.0 11.0 0.00 0.06 0.06 65 1014.4
20260505184250 60 267 2.0 9.0 0.00 0.06 0.06 63 1014.4
20260505183745 60 86 2.0 8.0 0.00 0.06 0.06 66 1014.4
20260505183238 59 199 2.0 10.0 0.00 0.06 0.06 68 1014.5
20260505182732 58 222 4.0 11.0 0.00 0.06 0.06 73 1014.5
20260505182225 57 246 4.0 11.0 0.00 0.06 0.06 72 1014.6
20260505181720 57 239 3.0 9.0 0.00 0.06 0.06 73 1014.5
20260505181213 57 228 3.0 11.0 0.00 0.06 0.06 76 1014.5
20260505180708 57 277 2.0 11.0 0.00 0.06 0.06 79 1014.4
20260505180421 56 256 1.0 7.0 0.00 0.06 0.06 79 1014.5
20260505175657 56 273 1.0 7.0 0.00 0.06 0.06 83 1014.5
20260505175150 56 290 0.0 5.0 0.00 0.06 0.06 82 1014.5
20260505174643 55 238 1.0 6.0 0.00 0.06 0.06 86 1014.5
20260505174137 55 229 1.0 6.0 0.00 0.06 0.06 83 1014.4
20260505173632 55 281 0.0 3.0 0.00 0.06 0.06 84 1014.3
20260505173125 55 257 0.0 5.0 0.00 0.06 0.06 83 1014.2
20260505172847 55 268 0.0 5.0 0.00 0.06 0.06 83 1014.1
20260505172114 55 240 1.0 6.0 0.00 0.06 0.06 83 1014.0
20260505171608 55 256 1.0 6.0 0.00 0.06 0.06 82 1013.9
20260505171101 55 235 0.0 4.0 0.00 0.06 0.06 82 1013.9
20260505170556 55 295 0.0 4.0 0.00 0.06 0.06 84 1013.8
20260505170051 55 257 1.0 4.0 0.00 0.06 0.06 84 1013.8
20260505165806 55 261 1.0 8.0 0.00 0.06 0.06 83 1014.0
20260505165038 55 244 1.0 8.0 0.00 0.06 0.06 85 1013.9
20260505164533 55 219 2.0 8.0 0.00 0.06 0.06 85 1013.9
20260505164025 55 242 3.0 8.0 0.00 0.06 0.06 84 1013.8
20260505163520 55 270 1.0 7.0 0.00 0.06 0.06 84 1013.9
20260505163014 55 250 1.0 5.0 0.00 0.06 0.06 86 1013.8
20260505162508 55 143 1.0 4.0 0.00 0.06 0.06 86 1013.7
20260505162002 55 238 0.0 2.0 0.00 0.06 0.06 86 1013.8
20260505161456 54 267 1.0 9.0 0.00 0.06 0.06 87 1013.6
20260505160949 54 307 1.0 9.0 0.00 0.06 0.06 86 1013.4
20260505160443 54 236 2.0 9.0 0.00 0.06 0.06 88 1013.3
20260505152902 53 269 1.0 9.0 0.00 0.06 0.06 91 1013.3
20260505152118 53 252 1.0 9.0 0.00 0.06 0.06 92 1013.1
20260505151344 53 229 1.0 7.0 0.00 0.06 0.06 93 1013.1
20260505150838 53 273 2.0 7.0 0.00 0.06 0.06 93 1013.0
20260505150332 53 273 1.0 5.0 0.00 0.06 0.06 94 1012.9
20260505140220 52 229 0.0 5.0 0.00 0.06 0.06 96 1012.6
20260505130108 52 256 0.0 7.0 0.00 0.06 0.06 95 1012.0
20260505124550 52 236 2.0 8.0 0.00 0.06 0.06 95 1012.1
20260505124310 52 261 1.0 8.0 0.00 0.06 0.06 95 1012.0
20260505123537 52 271 1.0 8.0 0.00 0.06 0.06 95 1011.9
20260505123032 52 251 1.0 8.0 0.00 0.06 0.06 95 1011.9
20260505122527 52 237 0.0 4.0 0.00 0.06 0.06 96 1011.9
20260505122019 51 274 0.0 1.0 0.00 0.06 0.06 95 1011.9
20260505121513 51 235 0.0 0.0 0.01 0.06 0.06 95 1011.9
20260505121009 51 242 0.0 0.0 0.01 0.06 0.06 95 1011.9
20260505120722 51 242 0.0 0.0 0.02 0.06 0.06 95 1011.9
20260505120214 51 242 0.0 0.0 0.03 0.06 0.06 95 1011.9
20260505115449 51 242 0.0 2.0 0.03 0.06 0.06 95 1011.9
20260505114943 51 242 0.0 2.0 0.03 0.06 0.06 95 1011.9
20260505114442 51 242 0.0 2.0 0.03 0.06 0.06 95 1011.9
20260505113939 51 234 0.0 2.0 0.03 0.06 0.06 95 1012.0
20260505113701 51 229 0.0 1.0 0.03 0.06 0.06 95 1012.0
20260505112935 51 262 0.0 1.0 0.03 0.06 0.06 95 1012.0
20260505112434 51 285 0.0 0.0 0.03 0.06 0.06 95 1012.0
20260505111931 52 315 0.0 0.0 0.03 0.05 0.05 95 1012.0
20260505111428 52 330 0.0 2.0 0.03 0.05 0.05 95 1011.9
20260505110929 52 282 0.0 2.0 0.03 0.05 0.05 95 1012.1
20260505110432 52 287 0.0 3.0 0.03 0.04 0.05 95 1012.1
20260505110149 52 247 0.0 3.0 0.02 0.03 0.03 95 1012.2
20260505101922 52 261 0.0 0.0 0.02 0.02 0.02 94 1012.0
20260505101421 52 249 0.0 0.0 0.02 0.02 0.02 94 1012.0
20260505100924 52 223 0.0 0.0 0.01 0.01 0.01 94 1012.1
20260505100418 52 246 0.0 0.0 0.01 0.01 0.01 94 1012.0
20260505095912 52 246 0.0 0.0 0.01 0.01 0.01 94 1012.0
20260505095406 52 246 0.0 0.0 0.01 0.01 0.01 94 1012.1
20260505095122 52 246 0.0 0.0 0.00 0.00 0.00 94 1012.2
20260505094354 52 266 0.0 0.0 0.00 0.00 0.00 94 1012.1
20260505093847 52 282 0.0 0.0 0.00 0.00 0.00 94 1012.1
20260505093342 52 302 0.0 0.0 0.00 0.00 0.00 94 1012.2
20260505092836 52 302 0.0 0.0 0.00 0.00 0.00 94 1012.3
20260505092330 52 308 0.0 0.0 0.00 0.00 0.00 93 1012.4
20260505091824 52 315 0.0 0.0 0.00 0.00 0.00 93 1012.3
20260505091318 52 288 0.0 0.0 0.00 0.00 0.00 93 1012.4
20260505090812 52 288 0.0 0.0 0.00 0.00 0.00 93 1012.5
20260505090306 52 288 0.0 0.0 0.00 0.00 0.00 93 1012.6
20260505085801 52 280 0.0 0.0 0.00 0.00 0.00 93 1012.7
20260505085517 52 280 0.0 0.0 0.00 0.00 0.00 93 1012.8
20260505084748 52 286 0.0 0.0 0.00 0.00 0.00 93 1012.7
20260505084241 52 286 0.0 0.0 0.00 0.00 0.00 94 1012.7
20260505083736 52 286 0.0 0.0 0.00 0.00 0.00 94 1012.8
20260505083230 53 286 0.0 0.0 0.00 0.00 0.00 94 1012.9
20260505082724 53 286 0.0 0.0 0.00 0.00 0.00 94 1012.9
20260505082449 53 286 0.0 0.0 0.00 0.00 0.00 94 1013.0
20260505081712 53 286 0.0 0.0 0.00 0.00 0.00 94 1013.0
20260505081206 53 286 0.0 0.0 0.00 0.00 0.00 93 1013.1
20260505080700 53 286 0.0 0.0 0.00 0.00 0.00 94 1013.1
20260505080154 53 355 0.0 0.0 0.00 0.00 0.00 94 1013.1
20260505075916 53 302 0.0 2.0 0.00 0.00 0.00 94 1013.3
20260505075144 53 297 0.0 2.0 0.00 0.00 0.00 94 1013.2
20260505074636 53 0 0.0 0.0 0.00 0.00 0.00 94 1013.1
20260505074352 53 0 0.0 0.0 0.00 0.00 0.00 94 1013.2
20260505073623 53 238 0.0 0.0 0.00 0.00 0.00 94 1013.3
20260505073339 53 238 0.0 0.0 0.00 0.00 0.00 93 1013.3
20260505072843 53 238 0.0 0.0 0.00 0.00 0.00 93 1013.4
20260505072106 53 238 0.0 0.0 0.00 0.00 0.00 93 1013.4
20260505071558 53 238 0.0 0.0 0.00 0.00 0.00 93 1013.4
20260505071052 53 238 0.0 0.0 0.00 0.00 0.00 93 1013.4
20260505070553 53 238 0.0 0.0 0.00 0.00 0.00 93 1013.4
20260505070049 53 238 0.0 0.0 0.00 0.00 0.00 92 1013.4
20260505065546 53 238 0.0 0.0 0.00 0.00 0.01 92 1013.4
20260505065307 53 238 0.0 0.0 0.00 0.00 0.01 92 1013.4
20260505064547 53 238 0.0 1.0 0.00 0.00 0.01 92 1013.7
20260505064045 53 238 0.0 1.0 0.00 0.00 0.01 92 1013.7
20260505063546 53 238 0.0 1.0 0.00 0.00 0.01 92 1013.6
20260505063047 53 239 0.0 1.0 0.00 0.00 0.01 92 1013.7
20260505062547 53 248 0.0 0.0 0.00 0.00 0.01 92 1013.7
20260505062048 53 248 0.0 4.0 0.00 0.00 0.01 92 1013.7
20260505061607 54 247 0.0 4.0 0.00 0.00 0.01 92 1013.7
20260505061042 54 255 0.0 4.0 0.00 0.00 0.01 92 1013.8
20260505060544 54 255 0.0 4.0 0.00 0.00 0.01 91 1013.8
20260505060301 54 227 0.0 3.0 0.00 0.00 0.01 91 1013.9
20260505060028 54 238 0.0 3.0 0.00 0.00 0.01 91 1013.9
20260505055043 54 261 0.0 0.0 0.00 0.00 0.01 91 1013.9
20260505054543 54 267 0.0 2.0 0.00 0.00 0.01 91 1013.9
20260505054041 54 267 0.0 2.0 0.00 0.00 0.01 91 1013.9
20260505053812 54 267 0.0 2.0 0.00 0.00 0.01 90 1013.9
20260505053039 54 238 0.0 2.0 0.00 0.00 0.01 90 1014.0
20260505052539 54 247 0.0 2.0 0.00 0.00 0.01 89 1014.1
20260505052038 54 242 0.0 6.0 0.00 0.00 0.01 88 1014.2
20260505051539 54 244 0.0 6.0 0.00 0.00 0.01 88 1014.1
20260505051300 55 221 1.0 7.0 0.00 0.00 0.01 87 1014.1
20260505050539 55 240 1.0 7.0 0.00 0.00 0.01 86 1014.0
20260505041535 55 246 1.0 10.0 0.00 0.00 0.01 84 1014.1
20260505041035 55 243 2.0 10.0 0.00 0.00 0.01 84 1014.0
20260505040535 56 244 1.0 6.0 0.00 0.00 0.01 85 1014.0
20260505040030 56 246 2.0 6.0 0.00 0.00 0.01 85 1014.0
20260505035531 56 257 2.0 7.0 0.00 0.00 0.01 85 1013.9
20260505035030 56 214 2.0 8.0 0.00 0.00 0.01 85 1013.9
20260505034530 56 223 2.0 8.0 0.00 0.00 0.01 84 1013.9
20260505034248 56 233 1.0 8.0 0.00 0.00 0.01 84 1013.8
20260505033531 56 252 1.0 8.0 0.00 0.00 0.01 84 1013.9
20260505033030 56 248 2.0 9.0 0.00 0.00 0.01 83 1013.8
20260505032755 56 242 2.0 10.0 0.00 0.00 0.01 83 1013.9
20260505032031 56 253 2.0 10.0 0.00 0.00 0.01 83 1013.8
20260505031759 56 265 2.0 10.0 0.00 0.00 0.01 83 1013.7
20260505031251 56 259 3.0 10.0 0.00 0.00 0.01 83 1013.7
20260505030529 56 252 2.0 8.0 0.00 0.00 0.01 83 1013.6
20260505030030 56 244 2.0 9.0 0.00 0.00 0.01 82 1013.7
20260505025531 56 232 2.0 9.0 0.00 0.00 0.01 80 1013.4
20260505025030 56 237 2.0 9.0 0.00 0.00 0.01 80 1013.3
20260505024531 56 240 4.0 12.0 0.00 0.00 0.01 80 1013.3
20260505024029 56 245 4.0 12.0 0.00 0.00 0.01 80 1013.4
20260505023528 56 230 5.0 12.0 0.00 0.00 0.01 79 1013.4
20260505023025 56 257 5.0 12.0 0.00 0.00 0.01 79 1013.4
20260505022526 56 254 4.0 12.0 0.00 0.00 0.01 78 1013.4
20260505022026 57 237 5.0 13.0 0.00 0.00 0.01 78 1013.7
20260505022015 57 246 5.0 13.0 0.00 0.00 0.01 77 1013.6
20260505021027 57 236 4.0 12.0 0.00 0.00 0.01 77 1013.6
20260505020526 57 209 4.0 12.0 0.00 0.00 0.01 77 1013.6
20260505020027 57 232 4.0 12.0 0.00 0.00 0.01 76 1013.4
20260505015528 57 259 4.0 12.0 0.00 0.00 0.01 75 1013.7
20260505015028 58 233 4.0 12.0 0.00 0.00 0.01 75 1013.8
20260505014529 58 209 4.0 11.0 0.00 0.00 0.01 74 1013.7
20260505014248 59 242 3.0 11.0 0.00 0.00 0.01 72 1013.8
20260505013517 59 219 4.0 14.0 0.00 0.00 0.01 71 1013.8
20260505013015 60 228 5.0 14.0 0.00 0.00 0.01 70 1013.9
20260505012517 60 233 4.0 11.0 0.00 0.00 0.01 68 1013.6
20260505012018 60 188 4.0 11.0 0.00 0.00 0.01 69 1013.7
20260505011520 60 219 4.0 12.0 0.00 0.00 0.01 68 1013.7
20260505011246 60 248 5.0 15.0 0.00 0.00 0.01 68 1013.7
20260505010512 60 240 6.0 15.0 0.00 0.00 0.01 68 1013.8
20260505010011 60 213 7.0 15.0 0.00 0.00 0.01 66 1013.8
20260505005511 60 259 7.0 15.0 0.00 0.00 0.01 65 1013.7
20260505005009 61 241 7.0 15.0 0.00 0.00 0.01 63 1013.7
20260505004511 61 246 6.0 15.0 0.00 0.00 0.01 66 1013.4
20260505004007 61 241 5.0 15.0 0.00 0.00 0.01 65 1013.6
20260505003506 61 236 6.0 15.0 0.00 0.00 0.01 65 1013.4
20260505003003 62 281 6.0 15.0 0.00 0.00 0.01 63 1013.7
20260505002505 62 254 6.0 15.0 0.00 0.00 0.01 63 1013.6
20260505002234 62 259 6.0 12.0 0.00 0.00 0.01 60 1013.6
20260505001503 62 269 6.0 13.0 0.00 0.00 0.01 61 1013.4
20260505001001 62 253 7.0 13.0 0.00 0.00 0.01 60 1013.7
20260505000502 62 257 6.0 13.0 0.00 0.00 0.01 59 1013.6
20260504235959 63 257 5.0 12.0 0.00 0.00 0.01 61 1013.6
20260504235653 62 196 7.0 16.0 0.00 0.00 0.01 64 1013.7
20260504235543 63 273 5.0 16.0 0.00 0.00 0.01 62 1013.7
20260504234718 62 234 8.0 16.0 0.00 0.00 0.01 64 1013.4
20260504234217 62 279 8.0 16.0 0.00 0.00 0.01 63 1013.3
20260504233937 62 259 7.0 15.0 0.00 0.00 0.01 62 1013.3
20260504232952 62 242 6.0 17.0 0.00 0.00 0.01 61 1013.3
20260504232452 62 243 7.0 17.0 0.00 0.00 0.01 62 1013.3
20260504231952 63 242 7.0 17.0 0.00 0.00 0.01 60 1013.3
20260504231723 64 259 6.0 17.0 0.00 0.00 0.01 57 1013.4
20260504230947 65 240 5.0 18.0 0.00 0.00 0.01 57 1013.3